EZY42JP LFRB-EGKK

Flight info

Callsign EZY42JP
Flight time 0h 54m
Altitude 28000
Route NORBU DCT NOZHU/N0432F270 DCT OTMET
Aircraft A320/M-SDE3FGHIRWY/LB1

Departure

Time 2026-04-26 19:00
Airport Brest Bretagne airport (LFRB)

Arrival

Time 2026-04-26 19:54
Airport London Gatwick Airport (EGKK)
Time Latitude Longitude Altitude Speed Heading
2026-04-26 18:46 48.44422 -4.42034 332 ft 0 kts 161°
2026-04-26 18:51 48.44423 -4.42034 332 ft 1 kts 161°
2026-04-26 18:52 48.44446 -4.42045 331 ft 4 kts 169°
2026-04-26 18:52 48.44473 -4.42050 329 ft 4 kts 182°
2026-04-26 18:52 48.44499 -4.42043 330 ft 4 kts 210°
2026-04-26 18:52 48.44513 -4.42022 330 ft 0 kts 251°
2026-04-26 18:55 48.44510 -4.42034 328 ft 5 kts 253°
2026-04-26 18:55 48.44524 -4.42075 329 ft 4 kts 328°
2026-04-26 18:55 48.44562 -4.42098 332 ft 8 kts 339°
2026-04-26 18:55 48.44615 -4.42127 332 ft 8 kts 340°
2026-04-26 18:56 48.44673 -4.42161 330 ft 10 kts 330°
2026-04-26 18:56 48.44689 -4.42286 323 ft 16 kts 251°
2026-04-26 18:56 48.44646 -4.42471 314 ft 21 kts 252°
2026-04-26 18:56 48.44593 -4.42705 306 ft 27 kts 250°
2026-04-26 18:57 48.44529 -4.42984 303 ft 28 kts 249°
2026-04-26 18:57 48.44505 -4.43080 300 ft 30 kts 250°
2026-04-26 18:57 48.44395 -4.43577 301 ft 30 kts 251°
2026-04-26 18:57 48.44355 -4.43735 299 ft 10 kts 223°
2026-04-26 18:58 48.44335 -4.43780 297 ft 8 kts 257°
2026-04-26 18:58 48.44357 -4.43813 296 ft 2 kts 14°
2026-04-26 18:58 48.44363 -4.43805 296 ft 3 kts 48°
2026-04-26 18:58 48.44364 -4.43769 297 ft 2 kts 92°
2026-04-26 18:59 48.44362 -4.43733 299 ft 7 kts 93°
2026-04-26 18:59 48.44371 -4.43683 299 ft 0 kts 70°
2026-04-26 18:59 48.44371 -4.43681 299 ft 2 kts 70°
2026-04-26 18:59 48.44430 -4.43428 302 ft 63 kts 71°
2026-04-26 19:00 48.44648 -4.42456 315 ft 128 kts 71°
2026-04-26 19:00 48.44975 -4.41008 623 ft 151 kts 70°
2026-04-26 19:00 48.45325 -4.39522 1335 ft 149 kts 62°
2026-04-26 19:00 48.45859 -4.38097 1801 ft 168 kts 55°
2026-04-26 19:01 48.46687 -4.36679 2217 ft 191 kts 43°
2026-04-26 19:01 48.47833 -4.35445 2627 ft 216 kts 27°
2026-04-26 19:01 48.49316 -4.34641 3193 ft 237 kts 12°
2026-04-26 19:01 48.51001 -4.34036 3780 ft 258 kts 16°
2026-04-26 19:02 48.52761 -4.33225 4603 ft 269 kts 18°
2026-04-26 19:02 48.54553 -4.32319 5565 ft 273 kts 18°
2026-04-26 19:02 48.56382 -4.31394 6470 ft 282 kts 18°
2026-04-26 19:02 48.57662 -4.30748 6960 ft 293 kts 18°
2026-04-26 19:03 48.60354 -4.29419 7573 ft 322 kts 17°
2026-04-26 19:03 48.62562 -4.28361 7995 ft 344 kts 17°
2026-04-26 19:03 48.64923 -4.27246 8356 ft 365 kts 17°
2026-04-26 19:03 48.67408 -4.26086 8743 ft 382 kts 17°
2026-04-26 19:04 48.69983 -4.24871 9308 ft 393 kts 17°
2026-04-26 19:04 48.72609 -4.23616 10017 ft 398 kts 17°
2026-04-26 19:04 48.75262 -4.22339 10692 ft 403 kts 17°
2026-04-26 19:04 48.77951 -4.21047 11363 ft 407 kts 17°
2026-04-26 19:05 48.83416 -4.18433 12707 ft 416 kts 17°
2026-04-26 19:05 48.86188 -4.17105 13372 ft 420 kts 17°
2026-04-26 19:05 48.88993 -4.15756 14032 ft 424 kts 17°
2026-04-26 19:06 48.91819 -4.14397 14589 ft 429 kts 17°
2026-04-26 19:06 48.94680 -4.13023 15138 ft 433 kts 17°
2026-04-26 19:06 48.97559 -4.11642 15662 ft 437 kts 17°
2026-04-26 19:06 49.00468 -4.10240 16177 ft 441 kts 17°
2026-04-26 19:07 49.03408 -4.08821 16676 ft 445 kts 17°
2026-04-26 19:07 49.06369 -4.07393 17169 ft 448 kts 16°
2026-04-26 19:07 49.09359 -4.05949 17644 ft 452 kts 16°
2026-04-26 19:07 49.12369 -4.04494 18106 ft 456 kts 16°
2026-04-26 19:08 49.15397 -4.03026 18547 ft 459 kts 16°
2026-04-26 19:08 49.18456 -4.01537 18923 ft 463 kts 16°
2026-04-26 19:08 49.21537 -4.00037 19290 ft 466 kts 16°
2026-04-26 19:08 49.24636 -3.98526 19645 ft 469 kts 16°
2026-04-26 19:09 49.27756 -3.97005 19999 ft 472 kts 16°
2026-04-26 19:09 49.30847 -3.95496 20328 ft 475 kts 16°
2026-04-26 19:09 49.34001 -3.93953 20641 ft 478 kts 16°
2026-04-26 19:09 49.37174 -3.92398 20948 ft 481 kts 16°
2026-04-26 19:10 49.40371 -3.90830 21235 ft 483 kts 16°
2026-04-26 19:10 49.43584 -3.89253 21531 ft 486 kts 16°
2026-04-26 19:10 49.46820 -3.87665 21839 ft 489 kts 16°
2026-04-26 19:10 49.50054 -3.86072 22130 ft 491 kts 16°
2026-04-26 19:11 49.53328 -3.84454 22411 ft 494 kts 16°
2026-04-26 19:11 49.56604 -3.82830 22680 ft 496 kts 16°
2026-04-26 19:11 49.59897 -3.81197 22940 ft 498 kts 16°
2026-04-26 19:11 49.63209 -3.79555 23177 ft 501 kts 16°
2026-04-26 19:12 49.66517 -3.77828 23417 ft 504 kts 20°
2026-04-26 19:12 49.69687 -3.75514 23658 ft 507 kts 28°
2026-04-26 19:12 49.72649 -3.72533 23852 ft 507 kts 37°
2026-04-26 19:12 49.75417 -3.69138 24005 ft 510 kts 39°
2026-04-26 19:13 49.78190 -3.65707 24165 ft 511 kts 39°
2026-04-26 19:13 49.80965 -3.62267 24319 ft 512 kts 39°
2026-04-26 19:13 49.83740 -3.58821 24455 ft 512 kts 38°
2026-04-26 19:13 49.86527 -3.55356 24595 ft 513 kts 39°
2026-04-26 19:14 49.89310 -3.51892 24716 ft 514 kts 38°
2026-04-26 19:14 49.92103 -3.48414 24849 ft 514 kts 39°
2026-04-26 19:14 49.94888 -3.44940 24970 ft 514 kts 39°
2026-04-26 19:14 49.96737 -3.42632 25054 ft 514 kts 39°
2026-04-26 19:15 50.00464 -3.37975 25240 ft 514 kts 39°
2026-04-26 19:15 50.03251 -3.34483 25390 ft 514 kts 39°
2026-04-26 19:15 50.06031 -3.30997 25532 ft 513 kts 39°
2026-04-26 19:15 50.08778 -3.27554 25684 ft 513 kts 39°
2026-04-26 19:16 50.11550 -3.24066 25842 ft 513 kts 39°
2026-04-26 19:16 50.14320 -3.20568 26000 ft 513 kts 39°
2026-04-26 19:16 50.17093 -3.17063 26179 ft 511 kts 39°
2026-04-26 19:16 50.19850 -3.13574 26367 ft 510 kts 39°
2026-04-26 19:17 50.22606 -3.10078 26531 ft 510 kts 39°
2026-04-26 19:17 50.25350 -3.06590 26717 ft 509 kts 39°
2026-04-26 19:17 50.28098 -3.03090 26895 ft 509 kts 39°
2026-04-26 19:17 50.30845 -2.99591 27082 ft 509 kts 39°
2026-04-26 19:18 50.33585 -2.96103 27235 ft 509 kts 39°
2026-04-26 19:18 50.36333 -2.92604 27281 ft 508 kts 39°
2026-04-26 19:18 50.39071 -2.89107 27279 ft 508 kts 39°
2026-04-26 19:18 50.41803 -2.85605 27275 ft 508 kts 39°
2026-04-26 19:19 50.44543 -2.82081 27276 ft 508 kts 39°
2026-04-26 19:19 50.47269 -2.78567 27271 ft 508 kts 39°
2026-04-26 19:19 50.49996 -2.75047 27285 ft 506 kts 39°
2026-04-26 19:19 50.52713 -2.71541 27273 ft 505 kts 39°
2026-04-26 19:20 50.55423 -2.68049 27282 ft 505 kts 39°
2026-04-26 19:20 50.57224 -2.65727 27268 ft 505 kts 39°
2026-04-26 19:20 50.60831 -2.60997 27277 ft 505 kts 43°
2026-04-26 19:20 50.63187 -2.56910 27293 ft 505 kts 53°
2026-04-26 19:21 50.65074 -2.52247 27285 ft 504 kts 63°
2026-04-26 19:21 50.66441 -2.47187 27287 ft 503 kts 73°
2026-04-26 19:21 50.67275 -2.41844 27288 ft 500 kts 83°
2026-04-26 19:21 50.67540 -2.36404 27287 ft 498 kts 93°
2026-04-26 19:22 50.67348 -2.30966 27273 ft 496 kts 96°
2026-04-26 19:22 50.67112 -2.25541 27268 ft 497 kts 96°
2026-04-26 19:22 50.66873 -2.20106 27275 ft 497 kts 96°
2026-04-26 19:22 50.66634 -2.14672 27263 ft 497 kts 96°
2026-04-26 19:23 50.66394 -2.09247 27262 ft 497 kts 96°
2026-04-26 19:23 50.66154 -2.03802 27272 ft 497 kts 95°
2026-04-26 19:23 50.66117 -1.98365 26630 ft 493 kts 91°
2026-04-26 19:23 50.66167 -1.92966 25191 ft 496 kts 90°
2026-04-26 19:24 50.66236 -1.87517 24367 ft 497 kts 90°
2026-04-26 19:24 50.66318 -1.82056 23911 ft 498 kts 90°
2026-04-26 19:24 50.66469 -1.71204 22891 ft 492 kts 90°
2026-04-26 19:25 50.66529 -1.65822 22384 ft 489 kts 90°
2026-04-26 19:25 50.66563 -1.62293 22059 ft 486 kts 90°
2026-04-26 19:25 50.66617 -1.55193 21405 ft 481 kts 90°
2026-04-26 19:25 50.66623 -1.49946 20927 ft 478 kts 91°
2026-04-26 19:26 50.66571 -1.44728 20460 ft 474 kts 92°
2026-04-26 19:26 50.66490 -1.39538 19987 ft 471 kts 90°
2026-04-26 19:26 50.66707 -1.34493 19535 ft 468 kts 81°
2026-04-26 19:26 50.67440 -1.29536 19082 ft 464 kts 71°
2026-04-26 19:27 50.68603 -1.24803 18639 ft 461 kts 67°
2026-04-26 19:27 50.69810 -1.20146 18141 ft 457 kts 67°
2026-04-26 19:27 50.71006 -1.15515 17633 ft 454 kts 67°
2026-04-26 19:27 50.72182 -1.10916 17130 ft 449 kts 68°
2026-04-26 19:28 50.73326 -1.06398 16636 ft 437 kts 68°
2026-04-26 19:28 50.74438 -1.01999 16159 ft 427 kts 68°
2026-04-26 19:28 50.75531 -0.97680 15671 ft 419 kts 68°
2026-04-26 19:28 50.76600 -0.93454 15217 ft 411 kts 68°
2026-04-26 19:29 50.77651 -0.89296 14750 ft 403 kts 68°
2026-04-26 19:29 50.78680 -0.85212 14293 ft 396 kts 69°
2026-04-26 19:29 50.79686 -0.81199 13823 ft 390 kts 69°
2026-04-26 19:29 50.80673 -0.77246 13433 ft 380 kts 69°
2026-04-26 19:30 50.81370 -0.73312 13182 ft 367 kts 80°
2026-04-26 19:30 50.81833 -0.69388 12839 ft 358 kts 80°
2026-04-26 19:30 50.82281 -0.65560 12506 ft 350 kts 80°
2026-04-26 19:30 50.82571 -0.63070 12286 ft 345 kts 80°
2026-04-26 19:31 50.83143 -0.58143 11851 ft 336 kts 80°
2026-04-26 19:31 50.83560 -0.54550 11530 ft 329 kts 80°
2026-04-26 19:31 50.83968 -0.51017 11204 ft 323 kts 80°
2026-04-26 19:31 50.84365 -0.47544 10889 ft 318 kts 80°
2026-04-26 19:32 50.84751 -0.44145 10574 ft 313 kts 80°
2026-04-26 19:32 50.85135 -0.40763 10260 ft 308 kts 80°
2026-04-26 19:32 50.85512 -0.37458 9931 ft 304 kts 80°
2026-04-26 19:32 50.85884 -0.34193 9586 ft 299 kts 80°
2026-04-26 19:33 50.86249 -0.30971 9240 ft 295 kts 80°
2026-04-26 19:33 50.86608 -0.27804 8903 ft 291 kts 80°
2026-04-26 19:33 50.86966 -0.24661 8575 ft 289 kts 80°
2026-04-26 19:33 50.87321 -0.21537 8246 ft 287 kts 80°
2026-04-26 19:34 50.87669 -0.18432 7914 ft 285 kts 80°
2026-04-26 19:34 50.88011 -0.15372 7595 ft 280 kts 80°
2026-04-26 19:34 50.88347 -0.12370 7325 ft 273 kts 80°
2026-04-26 19:34 50.88660 -0.09436 7275 ft 273 kts 81°
2026-04-26 19:35 50.88960 -0.06424 7277 ft 279 kts 81°
2026-04-26 19:35 50.89260 -0.03379 7278 ft 280 kts 81°
2026-04-26 19:35 50.89559 -0.00330 7284 ft 280 kts 81°
2026-04-26 19:35 50.89857 0.02727 7292 ft 281 kts 81°
2026-04-26 19:36 50.90154 0.05747 7293 ft 281 kts 81°
2026-04-26 19:36 50.90255 0.06788 7292 ft 282 kts 81°
2026-04-26 19:36 50.90756 0.11917 7288 ft 281 kts 81°
2026-04-26 19:36 50.91055 0.14983 7286 ft 282 kts 81°
2026-04-26 19:37 50.91579 0.17950 7279 ft 281 kts 62°
2026-04-26 19:37 50.92809 0.20280 6958 ft 276 kts 35°
2026-04-26 19:37 50.94556 0.21450 6518 ft 273 kts
2026-04-26 19:37 50.96420 0.21154 6249 ft 272 kts 339°
2026-04-26 19:38 50.97977 0.19519 6052 ft 271 kts 315°
2026-04-26 19:38 50.99272 0.17334 6008 ft 273 kts 311°
2026-04-26 19:38 51.00539 0.15080 6013 ft 273 kts 311°
2026-04-26 19:38 51.01670 0.12674 6011 ft 273 kts 294°
2026-04-26 19:39 51.02044 0.09824 6011 ft 257 kts 266°
2026-04-26 19:39 51.01769 0.07121 6013 ft 238 kts 257°
2026-04-26 19:39 51.01414 0.04643 6017 ft 223 kts 256°
2026-04-26 19:39 51.01060 0.02274 6020 ft 220 kts 256°
2026-04-26 19:40 51.00708 -0.00078 6027 ft 219 kts 256°
2026-04-26 19:40 51.00355 -0.02439 6035 ft 220 kts 256°
2026-04-26 19:40 51.00007 -0.04771 6036 ft 220 kts 256°
2026-04-26 19:40 50.99656 -0.07136 6036 ft 220 kts 256°
2026-04-26 19:41 50.99307 -0.09502 6035 ft 220 kts 256°
2026-04-26 19:41 50.98957 -0.11866 6036 ft 220 kts 256°
2026-04-26 19:41 50.98605 -0.14221 6036 ft 220 kts 256°
2026-04-26 19:41 50.98486 -0.15023 6034 ft 220 kts 256°
2026-04-26 19:42 50.98014 -0.18179 6017 ft 220 kts 256°
2026-04-26 19:42 50.97666 -0.20509 6016 ft 220 kts 256°
2026-04-26 19:42 50.97307 -0.22906 6015 ft 220 kts 256°
2026-04-26 19:42 50.96959 -0.25235 6015 ft 220 kts 256°
2026-04-26 19:43 50.96605 -0.27597 6013 ft 220 kts 256°
2026-04-26 19:43 50.96251 -0.29960 6011 ft 220 kts 256°
2026-04-26 19:43 50.95898 -0.32323 6014 ft 220 kts 256°
2026-04-26 19:43 50.95544 -0.34685 6012 ft 220 kts 256°
2026-04-26 19:44 50.95188 -0.37048 6011 ft 220 kts 256°
2026-04-26 19:44 50.94833 -0.39412 6014 ft 220 kts 256°
2026-04-26 19:44 50.94476 -0.41769 6014 ft 220 kts 256°
2026-04-26 19:44 50.94369 -0.44163 5953 ft 218 kts 282°
2026-04-26 19:45 50.95018 -0.46256 5783 ft 208 kts 307°
2026-04-26 19:45 50.95904 -0.48010 5649 ft 200 kts 310°
2026-04-26 19:45 50.96799 -0.49676 5429 ft 198 kts 311°
2026-04-26 19:45 50.97691 -0.51324 5162 ft 199 kts 311°
2026-04-26 19:46 50.98606 -0.53022 4772 ft 205 kts 311°
2026-04-26 19:46 50.99537 -0.54763 4377 ft 207 kts 311°
2026-04-26 19:46 51.00457 -0.56494 4040 ft 201 kts 314°
2026-04-26 19:46 51.01555 -0.57696 3812 ft 188 kts 340°
2026-04-26 19:47 51.02789 -0.58371 3454 ft 186 kts 345°
2026-04-26 19:47 51.03612 -0.58761 3206 ft 186 kts 346°
2026-04-26 19:47 51.05266 -0.59524 3029 ft 186 kts 346°
2026-04-26 19:47 51.06514 -0.60096 3023 ft 187 kts 346°
2026-04-26 19:48 51.07776 -0.60579 3000 ft 186 kts
2026-04-26 19:48 51.08911 -0.59848 3016 ft 180 kts 52°
2026-04-26 19:48 51.09338 -0.58018 3038 ft 181 kts 81°
2026-04-26 19:48 51.09604 -0.56059 3026 ft 182 kts 76°
2026-04-26 19:49 51.09898 -0.54104 3037 ft 181 kts 77°
2026-04-26 19:49 51.10181 -0.52151 3036 ft 181 kts 77°
2026-04-26 19:49 51.10458 -0.50201 3035 ft 181 kts 77°
2026-04-26 19:49 51.10735 -0.48244 3035 ft 181 kts 77°
2026-04-26 19:50 51.11011 -0.46287 3037 ft 181 kts 77°
2026-04-26 19:50 51.11285 -0.44336 3036 ft 181 kts 77°
2026-04-26 19:50 51.11559 -0.42387 2917 ft 178 kts 77°
2026-04-26 19:50 51.11826 -0.40488 2728 ft 175 kts 77°
2026-04-26 19:51 51.12088 -0.38617 2529 ft 171 kts 78°
2026-04-26 19:51 51.12344 -0.36792 2298 ft 168 kts 78°
2026-04-26 19:51 51.12593 -0.35008 2057 ft 161 kts 78°
2026-04-26 19:51 51.12834 -0.33285 1836 ft 158 kts 78°
2026-04-26 19:52 51.13068 -0.31606 1622 ft 150 kts 78°
2026-04-26 19:52 51.13287 -0.30036 1434 ft 140 kts 79°
2026-04-26 19:52 51.13495 -0.28542 1241 ft 137 kts 78°
2026-04-26 19:52 51.13700 -0.27071 1055 ft 135 kts 78°
2026-04-26 19:53 51.13900 -0.25616 863 ft 134 kts 78°
2026-04-26 19:53 51.14101 -0.24172 701 ft 133 kts 78°
2026-04-26 19:53 51.14300 -0.22735 506 ft 132 kts 78°
2026-04-26 19:53 51.14500 -0.21303 324 ft 132 kts 78°
2026-04-26 19:54 51.14691 -0.19914 206 ft 121 kts 77°
2026-04-26 19:54 51.14841 -0.18834 207 ft 74 kts 77°
2026-04-26 19:54 51.14916 -0.18289 212 ft 30 kts 78°
2026-04-26 19:54 51.14968 -0.18000 209 ft 26 kts 67°
2026-04-26 19:55 51.15058 -0.17786 205 ft 12 kts 46°
2026-04-26 19:55 51.15122 -0.17756 205 ft 8 kts 354°
2026-04-26 19:55 51.15168 -0.17728 207 ft 7 kts 50°
2026-04-26 19:55 51.15185 -0.17659 211 ft 9 kts 76°
2026-04-26 19:56 51.15202 -0.17545 213 ft 12 kts 78°
2026-04-26 19:56 51.15216 -0.17441 208 ft 6 kts 78°
2026-04-26 19:56 51.15222 -0.17390 207 ft 2 kts 77°
2026-04-26 19:56 51.15224 -0.17382 206 ft 1 kts 77°
2026-04-26 19:57 51.15235 -0.17349 211 ft 5 kts 45°
2026-04-26 19:57 51.15279 -0.17344 204 ft 8 kts 350°
2026-04-26 19:57 51.15365 -0.17372 204 ft 16 kts 347°
2026-04-26 19:57 51.15479 -0.17413 204 ft 18 kts 348°
2026-04-26 19:58 51.15575 -0.17416 206 ft 13 kts 39°
2026-04-26 19:58 51.15607 -0.17268 207 ft 15 kts 76°
2026-04-26 19:58 51.15634 -0.17104 210 ft 14 kts 75°
2026-04-26 19:58 51.15712 -0.17026 207 ft 15 kts 356°
2026-04-26 19:59 51.15819 -0.17080 204 ft 16 kts 351°
2026-04-26 19:59 51.15878 -0.17081 204 ft 5 kts 345°
2026-04-26 19:59 51.15907 -0.17117 209 ft 5 kts 314°
2026-04-26 19:59 51.15929 -0.17154 204 ft 4 kts 315°
2026-04-26 20:00 51.15930 -0.17155 204 ft 0 kts 315°